Time,TemperatureF,DewpointF,PressureIn,WindDirection,WindDirectionDegrees,WindSpeedMPH,WindSpeedGustMPH,Humidity,HourlyPrecipIn,Conditions,Clouds,dailyrainin,SoftwareType,DateUTC
2013-02-19 00:02:00,21.0,2.0,-100.00,SSE,165,2.0,5.0,43,-99.99,,,-99.99,,2013-02-19 05:02:00,
2013-02-19 00:13:00,20.0,2.0,-100.00,ESE,105,0.0,5.0,45,-99.99,,,-99.99,,2013-02-19 05:13:00,
2013-02-19 00:22:00,20.0,2.0,-100.00,ESE,105,0.0,5.0,45,-99.99,,,-99.99,,2013-02-19 05:22:00,
2013-02-19 00:32:00,18.0,2.0,-100.00,South,175,2.0,5.0,49,-99.99,,,-99.99,,2013-02-19 05:32:00,
2013-02-19 00:43:00,19.0,2.0,-100.00,SSW,195,1.0,3.0,46,-99.99,,,-99.99,,2013-02-19 05:43:00,
2013-02-19 00:52:00,20.0,2.0,-100.00,South,180,1.0,2.0,45,-99.99,,,-99.99,,2013-02-19 05:52:00,
2013-02-19 01:03:00,20.0,2.0,-100.00,NE,55,1.0,3.0,44,-99.99,,,-99.99,,2013-02-19 06:03:00,
2013-02-19 01:12:00,22.0,2.0,-100.00,SW,225,2.0,7.0,42,-99.99,,,-99.99,,2013-02-19 06:12:00,
2013-02-19 01:22:00,22.0,2.0,-100.00,SW,220,2.0,8.0,41,-99.99,,,-99.99,,2013-02-19 06:22:00,
2013-02-19 01:32:00,23.0,2.0,-100.00,West,260,2.0,7.0,40,-99.99,,,-99.99,,2013-02-19 06:32:00,
2013-02-19 01:42:00,23.0,2.0,-100.00,WNW,290,2.0,6.0,40,-99.99,,,-99.99,,2013-02-19 06:42:00,
2013-02-19 01:52:00,23.0,2.0,-100.00,West,280,2.0,7.0,40,-99.99,,,-99.99,,2013-02-19 06:52:00,
2013-02-19 02:02:00,24.0,2.0,-100.00,WNW,285,5.0,8.0,39,-99.99,,,-99.99,,2013-02-19 07:02:00,
2013-02-19 02:12:00,24.0,2.0,-100.00,WNW,295,3.0,8.0,38,-99.99,,,-99.99,,2013-02-19 07:12:00,
2013-02-19 02:22:00,24.0,1.0,-100.00,WNW,295,2.0,6.0,37,-99.99,,,-99.99,,2013-02-19 07:22:00,
2013-02-19 02:32:00,24.0,4.0,-100.00,West,275,2.0,6.0,42,-99.99,,,-99.99,,2013-02-19 07:32:00,
2013-02-19 02:42:00,24.0,4.0,-100.00,WNW,285,2.0,7.0,42,-99.99,,,-99.99,,2013-02-19 07:42:00,
2013-02-19 02:52:00,24.0,4.0,-100.00,West,280,2.0,5.0,42,-99.99,,,-99.99,,2013-02-19 07:52:00,
2013-02-19 03:02:00,24.0,4.0,-100.00,NW,315,3.0,5.0,43,-99.99,,,-99.99,,2013-02-19 08:02:00,
2013-02-19 03:11:00,23.0,4.0,-100.00,WNW,295,3.0,6.0,44,-99.99,,,-99.99,,2013-02-19 08:11:00,
2013-02-19 03:22:00,23.0,4.0,-100.00,NW,315,2.0,6.0,44,-99.99,,,-99.99,,2013-02-19 08:22:00,
2013-02-19 03:32:00,23.0,5.0,-100.00,WNW,300,2.0,6.0,45,-99.99,,,-99.99,,2013-02-19 08:32:00,
2013-02-19 03:42:00,22.0,5.0,-100.00,West,275,1.0,3.0,47,-99.99,,,-99.99,,2013-02-19 08:42:00,
2013-02-19 03:52:00,22.0,5.0,-100.00,WSW,250,1.0,3.0,48,-99.99,,,-99.99,,2013-02-19 08:52:00,
2013-02-19 04:02:00,23.0,5.0,-100.00,South,185,1.0,3.0,45,-99.99,,,-99.99,,2013-02-19 09:02:00,
2013-02-19 04:11:00,24.0,5.0,-100.00,East,85,0.0,2.0,44,-99.99,,,-99.99,,2013-02-19 09:11:00,
2013-02-19 04:22:00,24.0,4.0,-100.00,South,175,2.0,3.0,43,-99.99,,,-99.99,,2013-02-19 09:22:00,
2013-02-19 04:30:00,23.0,6.0,-100.00,South,175,2.0,3.0,48,-99.99,,,-99.99,,2013-02-19 09:30:00,
2013-02-19 04:32:00,22.0,6.0,-100.00,South,170,3.0,5.0,51,-99.99,,,-99.99,,2013-02-19 09:32:00,
2013-02-19 04:42:00,21.0,6.0,-100.00,SSE,165,2.0,3.0,52,-99.99,,,-99.99,,2013-02-19 09:42:00,
2013-02-19 04:52:00,22.0,6.0,-100.00,SSE,150,1.0,3.0,49,-99.99,,,-99.99,,2013-02-19 09:52:00,
2013-02-19 05:02:00,22.0,6.0,-100.00,SSE,150,1.0,3.0,49,-99.99,,,-99.99,,2013-02-19 10:02:00,
2013-02-19 05:11:00,23.0,6.0,-100.00,South,175,2.0,3.0,48,-99.99,,,-99.99,,2013-02-19 10:11:00,
2013-02-19 05:22:00,23.0,6.0,-100.00,South,175,2.0,3.0,48,-99.99,,,-99.99,,2013-02-19 10:22:00,
2013-02-19 05:42:00,23.0,7.0,-100.00,SE,135,1.0,3.0,50,-99.99,,,-99.99,,2013-02-19 10:42:00,
2013-02-19 05:52:00,22.0,7.0,-100.00,SSE,165,1.0,5.0,53,-99.99,,,-99.99,,2013-02-19 10:52:00,
2013-02-19 06:01:00,22.0,7.0,-100.00,SE,145,2.0,6.0,52,-99.99,,,-99.99,,2013-02-19 11:01:00,
2013-02-19 06:11:00,23.0,7.0,-100.00,SE,145,2.0,5.0,51,-99.99,,,-99.99,,2013-02-19 11:11:00,
2013-02-19 06:22:00,22.0,8.0,-100.00,SSE,150,3.0,5.0,55,-99.99,,,-99.99,,2013-02-19 11:22:00,
2013-02-19 06:32:00,22.0,10.0,-100.00,SSE,155,3.0,6.0,60,-99.99,,,-99.99,,2013-02-19 11:32:00,
2013-02-19 06:42:00,22.0,10.0,-100.00,SSE,155,3.0,6.0,60,-99.99,,,-99.99,,2013-02-19 11:42:00,
2013-02-19 06:52:00,22.0,10.0,-100.00,SE,140,2.0,7.0,60,-99.99,,,-99.99,,2013-02-19 11:52:00,
2013-02-19 07:02:00,21.0,10.0,-100.00,SE,145,2.0,6.0,61,-99.99,,,-99.99,,2013-02-19 12:02:00,
2013-02-19 07:12:00,21.0,10.0,-100.00,SE,130,2.0,5.0,62,-99.99,,,-99.99,,2013-02-19 12:12:00,
2013-02-19 07:22:00,21.0,9.0,-100.00,SSE,150,2.0,5.0,60,-99.99,,,-99.99,,2013-02-19 12:22:00,
2013-02-19 07:32:00,21.0,11.0,-100.00,SE,135,2.0,5.0,66,-99.99,,,-99.99,,2013-02-19 12:32:00,
2013-02-19 07:42:00,20.0,11.0,-100.00,SE,145,3.0,6.0,67,-99.99,,,-99.99,,2013-02-19 12:42:00,
2013-02-19 07:52:00,21.0,11.0,-100.00,SSE,155,3.0,6.0,64,-99.99,,,-99.99,,2013-02-19 12:52:00,
2013-02-19 08:02:00,22.0,11.0,-100.00,SSE,150,3.0,6.0,63,-99.99,,,-99.99,,2013-02-19 13:02:00,
2013-02-19 08:11:00,22.0,11.0,-100.00,SSE,155,3.0,6.0,62,-99.99,,,-99.99,,2013-02-19 13:11:00,
2013-02-19 08:22:00,23.0,11.0,-100.00,SSE,160,3.0,7.0,60,-99.99,,,-99.99,,2013-02-19 13:22:00,
2013-02-19 08:32:00,24.0,14.0,-100.00,SSE,150,3.0,6.0,66,-99.99,,,-99.99,,2013-02-19 13:32:00,
2013-02-19 08:42:00,26.0,14.0,-100.00,SSE,150,3.0,8.0,62,-99.99,,,-99.99,,2013-02-19 13:42:00,
2013-02-19 08:52:00,27.0,14.0,-100.00,SSE,155,5.0,9.0,58,-99.99,,,-99.99,,2013-02-19 13:52:00,
2013-02-19 09:02:00,28.0,14.0,-100.00,SSE,160,6.0,12.0,55,-99.99,,,-99.99,,2013-02-19 14:02:00,
2013-02-19 09:12:00,30.0,14.0,-100.00,SSE,160,7.0,10.0,52,-99.99,,,-99.99,,2013-02-19 14:12:00,
2013-02-19 09:22:00,31.0,14.0,-100.00,South,180,6.0,12.0,49,-99.99,,,-99.99,,2013-02-19 14:22:00,
2013-02-19 09:33:00,32.0,32.0,-100.00,South,175,5.0,10.0,100,-99.99,,,-99.99,,2013-02-19 14:33:00,
2013-02-19 09:42:00,34.0,32.0,-100.00,South,180,6.0,10.0,93,-99.99,,,-99.99,,2013-02-19 14:42:00,
2013-02-19 09:52:00,34.0,32.0,-100.00,South,180,6.0,10.0,93,-99.99,,,-99.99,,2013-02-19 14:52:00,
2013-02-19 10:02:00,36.0,32.0,-100.00,SSE,165,5.0,8.0,85,-99.99,,,-99.99,,2013-02-19 15:02:00,
2013-02-19 10:11:00,36.0,32.0,-100.00,SSW,200,6.0,10.0,84,-99.99,,,-99.99,,2013-02-19 15:11:00,
2013-02-19 10:22:00,37.0,32.0,-100.00,South,190,8.0,13.0,83,-99.99,,,-99.99,,2013-02-19 15:22:00,
2013-02-19 10:30:00,40.0,32.0,-100.00,South,190,8.0,14.0,72,-99.99,,,-99.99,,2013-02-19 15:30:00,
2013-02-19 10:32:00,38.0,32.0,-100.00,SSW,195,7.0,12.0,78,-99.99,,,-99.99,,2013-02-19 15:32:00,
2013-02-19 10:42:00,39.0,32.0,-100.00,SW,215,6.0,14.0,77,-99.99,,,-99.99,,2013-02-19 15:42:00,
2013-02-19 11:11:00,40.0,32.0,-100.00,South,190,8.0,14.0,72,-99.99,,,-99.99,,2013-02-19 16:11:00,
2013-02-19 11:22:00,40.0,32.0,-100.00,South,190,8.0,14.0,72,-99.99,,,-99.99,,2013-02-19 16:22:00,
2013-02-19 11:42:00,42.0,32.0,-100.00,SSW,205,10.0,17.0,67,-99.99,,,-99.99,,2013-02-19 16:42:00,
2013-02-19 11:52:00,42.0,32.0,-100.00,SSW,205,10.0,17.0,67,-99.99,,,-99.99,,2013-02-19 16:52:00,
2013-02-19 12:01:00,43.0,32.0,-100.00,South,185,5.0,15.0,65,-99.99,,,-99.99,,2013-02-19 17:01:00,
2013-02-19 12:11:00,44.0,32.0,-100.00,South,170,7.0,12.0,64,-99.99,,,-99.99,,2013-02-19 17:11:00,
2013-02-19 12:21:00,44.0,32.0,-100.00,South,190,6.0,12.0,62,-99.99,,,-99.99,,2013-02-19 17:21:00,
2013-02-19 12:32:00,45.0,32.0,-100.00,South,170,9.0,17.0,61,-99.99,,,-99.99,,2013-02-19 17:32:00,
2013-02-19 12:42:00,45.0,32.0,-100.00,South,175,10.0,17.0,60,-99.99,,,-99.99,,2013-02-19 17:42:00,
2013-02-19 12:52:00,46.0,32.0,-100.00,South,175,7.0,20.0,59,-99.99,,,-99.99,,2013-02-19 17:52:00,
2013-02-19 13:02:00,46.0,32.0,-100.00,South,170,8.0,17.0,58,-99.99,,,-99.99,,2013-02-19 18:02:00,
2013-02-19 13:11:00,46.0,32.0,-100.00,South,175,12.0,17.0,58,-99.99,,,-99.99,,2013-02-19 18:11:00,
2013-02-19 13:21:00,46.0,32.0,-100.00,South,175,8.0,13.0,57,-99.99,,,-99.99,,2013-02-19 18:21:00,
2013-02-19 13:32:00,47.0,32.0,-100.00,SSW,195,9.0,14.0,56,-99.99,,,-99.99,,2013-02-19 18:32:00,
2013-02-19 13:42:00,47.0,32.0,-100.00,South,180,7.0,13.0,57,-99.99,,,-99.99,,2013-02-19 18:42:00,
2013-02-19 13:52:00,47.0,32.0,-100.00,South,175,7.0,17.0,56,-99.99,,,-99.99,,2013-02-19 18:52:00,
2013-02-19 14:01:00,47.0,32.0,-100.00,SSW,195,10.0,20.0,55,-99.99,,,-99.99,,2013-02-19 19:01:00,
2013-02-19 14:11:00,47.0,32.0,-100.00,SSW,200,9.0,17.0,55,-99.99,,,-99.99,,2013-02-19 19:11:00,
2013-02-19 14:21:00,48.0,32.0,-100.00,South,180,7.0,16.0,55,-99.99,,,-99.99,,2013-02-19 19:21:00,
2013-02-19 14:32:00,47.0,32.0,-100.00,SW,225,10.0,21.0,55,-99.99,,,-99.99,,2013-02-19 19:32:00,
2013-02-19 14:42:00,47.0,32.0,-100.00,SSE,165,9.0,16.0,55,-99.99,,,-99.99,,2013-02-19 19:42:00,
2013-02-19 14:52:00,47.0,32.0,-100.00,SSE,165,9.0,16.0,55,-99.99,,,-99.99,,2013-02-19 19:52:00,
2013-02-19 15:02:00,47.0,32.0,-100.00,South,175,7.0,17.0,56,-99.99,,,-99.99,,2013-02-19 20:02:00,
2013-02-19 15:12:00,47.0,32.0,-100.00,SSE,165,10.0,17.0,57,-99.99,,,-99.99,,2013-02-19 20:12:00,
2013-02-19 15:22:00,47.0,32.0,-100.00,SSW,195,10.0,21.0,57,-99.99,,,-99.99,,2013-02-19 20:22:00,
2013-02-19 15:32:00,47.0,32.0,-100.00,South,170,10.0,16.0,57,-99.99,,,-99.99,,2013-02-19 20:32:00,
2013-02-19 15:42:00,46.0,32.0,-100.00,South,185,6.0,14.0,57,-99.99,,,-99.99,,2013-02-19 20:42:00,
2013-02-19 15:52:00,47.0,32.0,-100.00,South,170,6.0,14.0,57,-99.99,,,-99.99,,2013-02-19 20:52:00,
2013-02-19 16:02:00,47.0,32.0,-100.00,South,180,6.0,13.0,57,-99.99,,,-99.99,,2013-02-19 21:02:00,
2013-02-19 16:10:00,44.0,32.0,-100.00,South,175,7.0,12.0,63,-99.99,,,-99.99,,2013-02-19 21:10:00,
2013-02-19 16:11:00,47.0,32.0,-100.00,South,185,10.0,20.0,57,-99.99,,,-99.99,,2013-02-19 21:11:00,
2013-02-19 16:21:00,47.0,32.0,-100.00,South,175,8.0,15.0,57,-99.99,,,-99.99,,2013-02-19 21:21:00,
2013-02-19 16:32:00,46.0,32.0,-100.00,South,170,9.0,15.0,58,-99.99,,,-99.99,,2013-02-19 21:32:00,
2013-02-19 16:42:00,45.0,32.0,-100.00,South,170,9.0,13.0,61,-99.99,,,-99.99,,2013-02-19 21:42:00,
2013-02-19 16:51:00,44.0,32.0,-100.00,South,175,7.0,12.0,63,-99.99,,,-99.99,,2013-02-19 21:51:00,
2013-02-19 17:02:00,44.0,32.0,-100.00,South,175,7.0,12.0,63,-99.99,,,-99.99,,2013-02-19 22:02:00,
2013-02-19 18:01:00,42.0,32.0,-100.00,SSE,155,5.0,7.0,68,-99.99,,,-99.99,,2013-02-19 23:01:00,
2013-02-19 18:11:00,42.0,32.0,-100.00,SSE,155,5.0,7.0,68,-99.99,,,-99.99,,2013-02-19 23:11:00,
2013-02-19 18:21:00,42.0,32.0,-100.00,SSE,155,5.0,10.0,68,-99.99,,,-99.99,,2013-02-19 23:21:00,
2013-02-19 18:32:00,42.0,32.0,-100.00,SSE,155,3.0,10.0,68,-99.99,,,-99.99,,2013-02-19 23:32:00,
2013-02-19 18:42:00,42.0,32.0,-100.00,South,170,7.0,10.0,68,-99.99,,,-99.99,,2013-02-19 23:42:00,
2013-02-19 18:52:00,42.0,32.0,-100.00,South,175,5.0,8.0,68,-99.99,,,-99.99,,2013-02-19 23:52:00,
2013-02-19 19:02:00,42.0,32.0,-100.00,South,190,3.0,10.0,68,-99.99,,,-99.99,,2013-02-20 00:02:00,
2013-02-19 19:11:00,42.0,32.0,-100.00,SSE,165,6.0,9.0,68,-99.99,,,-99.99,,2013-02-20 00:11:00,
2013-02-19 19:22:00,42.0,32.0,-100.00,SSE,165,5.0,9.0,68,-99.99,,,-99.99,,2013-02-20 00:22:00,
2013-02-19 19:42:00,42.0,32.0,-100.00,SSE,155,6.0,10.0,67,-99.99,,,-99.99,,2013-02-20 00:42:00,
2013-02-19 19:52:00,42.0,32.0,-100.00,SSE,155,6.0,10.0,67,-99.99,,,-99.99,,2013-02-20 00:52:00,
2013-02-19 20:02:00,43.0,32.0,-100.00,SSE,160,7.0,12.0,66,-99.99,,,-99.99,,2013-02-20 01:02:00,
2013-02-19 20:11:00,43.0,32.0,-100.00,SSE,165,9.0,14.0,65,-99.99,,,-99.99,,2013-02-20 01:11:00,
2013-02-19 20:22:00,43.0,32.0,-100.00,South,170,10.0,17.0,64,-99.99,,,-99.99,,2013-02-20 01:22:00,
2013-02-19 20:32:00,43.0,32.0,-100.00,South,170,7.0,13.0,64,-99.99,,,-99.99,,2013-02-20 01:32:00,
2013-02-19 20:42:00,44.0,32.0,-100.00,SSE,160,9.0,14.0,63,-99.99,,,-99.99,,2013-02-20 01:42:00,
2013-02-19 20:52:00,44.0,32.0,-100.00,South,170,7.0,14.0,63,-99.99,,,-99.99,,2013-02-20 01:52:00,
2013-02-19 21:02:00,44.0,32.0,-100.00,South,175,7.0,14.0,63,-99.99,,,-99.99,,2013-02-20 02:02:00,
2013-02-19 21:11:00,44.0,32.0,-100.00,SSE,150,7.0,14.0,63,-99.99,,,-99.99,,2013-02-20 02:11:00,
2013-02-19 21:22:00,44.0,32.0,-100.00,SSE,155,6.0,12.0,64,-99.99,,,-99.99,,2013-02-20 02:22:00,
2013-02-19 21:32:00,44.0,32.0,-100.00,SSE,160,7.0,13.0,64,-99.99,,,-99.99,,2013-02-20 02:32:00,
2013-02-19 21:42:00,44.0,32.0,-100.00,SSE,165,7.0,13.0,64,-99.99,,,-99.99,,2013-02-20 02:42:00,
2013-02-19 21:52:00,44.0,32.0,-100.00,SSE,165,7.0,13.0,64,-99.99,,,-99.99,,2013-02-20 02:52:00,
2013-02-19 22:02:00,43.0,32.0,-100.00,South,180,7.0,10.0,64,-99.99,,,-99.99,,2013-02-20 03:02:00,
2013-02-19 22:12:00,43.0,32.0,-100.00,East,85,2.0,8.0,64,-99.99,,,-99.99,,2013-02-20 03:12:00,
2013-02-19 22:22:00,43.0,32.0,-100.00,SW,220,2.0,10.0,64,-99.99,,,-99.99,,2013-02-20 03:22:00,
2013-02-19 22:32:00,43.0,32.0,-100.00,West,270,2.0,5.0,65,-99.99,,,-99.99,,2013-02-20 03:32:00,
2013-02-19 22:42:00,44.0,32.0,-100.00,WSW,240,2.0,6.0,64,-99.99,,,-99.99,,2013-02-20 03:42:00,
2013-02-19 22:52:00,44.0,32.0,-100.00,WSW,240,2.0,6.0,64,-99.99,,,-99.99,,2013-02-20 03:52:00,